CZ-6A DEB

Satellite information

Favourite Embed

Satellite Type and Status

DEBRISIN ORBIT

Key statistics

Satellite CZ-6A DEB at a glance.

Uptime

494

Days in orbit

Revolutions

≈ 14.8

Per day

Orbit

LEO

Low Earth Orbit

Inclination

89.0

Latest

Satellite identification and parameters

Extended collection of information and parameters for CZ-6A DEB.

Object identification

Identified? True

Debris? True

Object name: CZ-6A DEB

International designator: 2024-140YA

Object number (NORAD): 61409

Object ID (CCSDS): 61409

Country: PEOPLES REPUBLIC OF CHINA (PRC)

Current information (Y/N): Y

RCS size: SMALL

Orbital parameters

Period: 97.44 minutes

Inclination: 89.0322 deg

SMA: 7014.327 km

Apoapsis: 711.031 km

Periapsis: 561.353 km

RAAN: 293.2551 deg

Eccentricy: 0.0106695

Argument of periapsis: 127.7365 deg

Mean anomaly: 233.3586 deg

Mean motion: 14.77827518 rev/day

Mean motion (dot): 0.00019044 rev/day2

B* drag term: 0.002404 1/REarth

Two-line elements (TLE)

Creation date: Dec. 12, 2025, 7:26 a.m.

Reference frame: TEME

Reference center: EARTH

Epoch: Dec. 11, 2025, 8:54 p.m. UTC

TLE line 0: 0 CZ-6A DEB

TLE line 1: 1 61409U 24140YA 25345.87094957 .00019044 00000-0 24040-2 0 9999

TLE line 2: 2 61409 89.0322 293.2551 0106695 127.7365 233.3586 14.77827518 67262

Live tracking on map

Real-time ground track for satellite CZ-6A DEB.

In-orbit conjunctions

A list of the most updated potential collisions computed for object CZ-6A DEB.

Target Orbit TCA Probability of collision Miss distance Type
ASTEX 1 SSO 2025-11-14 12:24:02 0.0001880813 327.0 (m) PAYLOAD
COSMOS 2251 DEB LEO 2025-03-03 00:09:48 0.0001032469 986.0 (m) DEBRIS
ORBCOMM-X SSO 2025-03-02 15:57:03 0.0004192395 380.0 (m) PAYLOAD
NOAA 16 DEB SSO 2025-02-05 14:29:29 0.0002667009 149.0 (m) DEBRIS
IRIDIUM 33 DEB LEO 2024-11-29 03:26:13 0.0001673926 334.0 (m) DEBRIS

Associated space launch

18 Low Earth Orbit communication satellites with Ku, Q and V band payloads for the G60 constellation operated by Shanghai Spacecom Satellite Technology (SSST) with funding backed by the Shanghai local government. Initial constellation will consist of 1296 satellites by 2027 with long term plans to expand it to 12000 satellites.

CZ-6A DEB was lifted into orbit during the mission ‘Long March 6A | G60 Polar Group 01’, on board a Long March 6A space rocket.

The launch took place on Aug. 6, 2024, 6:42 a.m. from Launch Complex 9A.

For more information about the launch, click the button.

Launch to space Long March 6A | G60 Polar Group 01
Long March 6A | G60 Polar Group 01

Agency: N/A

Status: Launch Successful

Launch date: Aug. 6, 2024, 6:42 a.m. UTC

Rocket: Long March 6A

Launch pad: Launch Complex 9A

Location: Taiyuan Satellite Launch Center, People's Republic of China

...

Latest news about this satellite

News about space launch
Brightness of first Chinese broadband constellation satellites alarms astronomers

The first satellites of a Chinese broadband constellation are significantly brighter than those of Western systems, posing a new challenge for astronomers.

News about space launch
Chinese rocket stage breaks up into cloud of more than 700 pieces of space debris

HELSINKI — A Chinese Long March 6A rocket’s upper stage has fragmented into a cloud of over 700 pieces of space debris, adding to concerns about long-term orbital safety. China […]

News about space launch
China's Thousand Sails Megaconstellation Kicks Off with Dangerous Debris Field

China's Thousand Sails Megaconstellation Kicks Off with Dangerous Debris Field


Newsletter sign-up

Weekly statistics, charts and insights to help you stay on top of the space industry.